Marshalltown, IA

10:40 PM CDT on May 28, 2017 (GMT -0500)
Marshalltown Municipal

Weather History for KMIW - April, 2013

Change the Weather History Date:

Wednesday, April 10, 2013

  Actual Average Record
Temperature  
Mean Temperature 39 °F 47 °F  
Max Temperature 40 °F 59 °F 87 °F (2011)
Min Temperature 37 °F 36 °F 21 °F (2004)
Degree Days  
Heating Degree Days 26 18  
Month to date heating degree days 226 196  
Since 1 July heating degree days 6372 6497  
Cooling Degree Days 0 0  
Month to date cooling degree days 0 0  
Year to date cooling degree days 0 0  
Moisture  
Dew Point 37 °F    
Average Humidity 96    
Maximum Humidity 100    
Minimum Humidity 92    
Precipitation  
Precipitation 0.93 in 0.09 in 1.24 in (2008)
Month to date precipitation 2.17 0.74  
Sea Level Pressure  
Sea Level Pressure 29.88 in    
Wind  
Wind Speed 16 mph (NE)    
Max Wind Speed 31 mph    
Max Gust Speed 38 mph    
Visibility 8 miles    
Events Rain , Thunderstorm    
T = Trace of Precipitation, MM = Missing Value Source: NWS Daily Summary

Daily Weather History Graph

Daily Weather History Graph

Search for Another Location

Airport or City:

Trip Planner

Search our weather history database for the weather conditions in past years. The results will help you decide how hot, cold, wet, or windy it might be!

Date:

Astronomy

Apr. 10, 2013 Rise Set
Actual Time 6:38 AM CDT 7:47 PM CDT
Civil Twilight 6:10 AM CDT 8:16 PM CDT
Nautical Twilight 5:35 AM CDT 8:50 PM CDT
Astronomical Twilight 4:59 AM CDT 9:27 PM CDT
Moon 6:34 AM CDT (4/10) 8:25 PM CDT (4/10)
Length of Visible Light 14h 06m
Length of Day
13h 08m
New Moon, 0% of the Moon is Illuminated
Apr 10
New Moon
Apr 18
First Quarter
Apr 25
Full
May 2
Last Quarter
May 9
New

Hourly Weather History & Observations

Time (CDT) Temp. Windchill Dew Point Humidity Pressure Visibility Wind Dir Wind Speed Gust Speed Precip Events Conditions
12:50 AM 41.0 °F 31.6 °F 39.2 °F 93% 29.98 in 8.0 mi NW 20.7 mph 36.8 mph 0.04 in Rain Light Rain
12:51 AM 41.0 °F 31.6 °F 39.0 °F 93% 30.00 in 7.0 mi NW 20.7 mph 36.8 mph 0.05 in Rain Light Rain
12:58 AM 39.2 °F 29.6 °F 39.2 °F 100% 29.98 in 2.5 mi NNW 19.6 mph 28.8 mph 0.12 in Rain Heavy Rain
1:06 AM 39.2 °F 28.5 °F 39.2 °F 100% 29.97 in 2.5 mi North 24.2 mph 28.8 mph 0.18 in Rain , Thunderstorm Heavy Thunderstorms and Rain
1:08 AM 39.2 °F 29.0 °F 39.2 °F 100% 29.96 in 3.0 mi North 21.9 mph 28.8 mph 0.18 in Rain , Thunderstorm Thunderstorms and Rain
1:16 AM 39.2 °F 28.3 °F 39.2 °F 100% 29.97 in 4.0 mi North 25.3 mph 34.5 mph 0.24 in Rain , Thunderstorm Rain
1:26 AM 39.2 °F 28.5 °F 37.4 °F 93% 29.91 in 4.0 mi NE 24.2 mph 33.4 mph 0.30 in Rain Rain
1:31 AM 39.2 °F 28.7 °F 37.4 °F 93% 29.92 in 6.0 mi NE 23.0 mph 32.2 mph 0.31 in Rain , Thunderstorm Light Rain
1:53 AM 39.0 °F 27.8 °F 37.0 °F 93% 29.86 in 5.0 mi NE 26.5 mph 33.4 mph 0.38 in Rain , Thunderstorm Rain
2:08 AM 39.2 °F 27.8 °F 37.4 °F 93% 29.83 in 10.0 mi ENE 27.6 mph 35.7 mph 0.01 in Rain , Thunderstorm Light Rain
2:29 AM 39.2 °F 27.6 °F 37.4 °F 93% 29.81 in 10.0 mi ENE 28.8 mph 35.7 mph 0.01 in Rain Light Rain
2:53 AM 39.0 °F 28.5 °F 37.0 °F 93% 29.86 in 10.0 mi East 23.0 mph 29.9 mph 0.01 in Rain Light Rain
3:53 AM 37.9 °F 29.2 °F 37.0 °F 97% 29.91 in 8.0 mi East 15.0 mph - 0.06 in Rain Rain
4:24 AM 37.4 °F 30.3 °F 37.4 °F 100% 29.94 in 7.0 mi North 10.4 mph - 0.07 in Rain Rain
4:53 AM 37.9 °F 29.6 °F 36.0 °F 93% 29.95 in 5.0 mi NNE 13.8 mph - 0.16 in Rain Rain
5:05 AM 37.4 °F 28.5 °F 35.6 °F 93% 29.91 in 6.0 mi NE 15.0 mph - 0.04 in Rain Rain
5:42 AM 37.4 °F 25.6 °F 35.6 °F 93% 29.77 in 10.0 mi NE 26.5 mph 34.5 mph 0.09 in Rain Light Rain
5:53 AM 37.0 °F 25.6 °F 35.1 °F 93% 29.80 in 10.0 mi NE 24.2 mph 33.4 mph 0.09 in   Scattered Clouds
6:53 AM 37.0 °F 26.4 °F 35.1 °F 93% 29.81 in 10.0 mi East 20.7 mph 33.4 mph N/A   Mostly Cloudy
7:53 AM 37.0 °F 34.5 °F 36.0 °F 96% 30.02 in 7.0 mi WSW 3.5 mph - 0.01 in Rain Light Rain
8:04 AM 37.4 °F - 35.6 °F 93% 29.97 in 6.0 mi Calm Calm - 0.01 in Rain Light Rain
8:39 AM 37.4 °F 27.5 °F 35.6 °F 93% 29.85 in 8.0 mi ENE 18.4 mph - 0.03 in Rain Light Rain
8:53 AM 37.0 °F 27.7 °F 36.0 °F 96% 29.86 in 10.0 mi ENE 16.1 mph - 0.03 in   Mostly Cloudy
9:01 AM 37.4 °F 27.2 °F 35.6 °F 93% 29.82 in 10.0 mi NE 19.6 mph - 0.00 in   Mostly Cloudy
9:37 AM 37.4 °F 27.5 °F 35.6 °F 93% 29.86 in 10.0 mi NE 18.4 mph - 0.01 in Rain Light Rain
9:53 AM 37.9 °F 29.2 °F 35.1 °F 89% 29.90 in 10.0 mi NE 15.0 mph - 0.01 in Rain Light Rain
10:53 AM 37.0 °F 27.4 °F 35.1 °F 93% 29.93 in 10.0 mi ENE 17.3 mph - 0.02 in Rain Light Rain
12:53 PM 37.0 °F 29.3 °F 35.1 °F 93% 29.97 in 5.0 mi ENE 11.5 mph - 0.04 in Rain Light Rain
1:53 PM 37.0 °F 27.7 °F 35.1 °F 93% 29.94 in 5.0 mi East 16.1 mph - 0.08 in Rain Light Rain
2:35 PM 37.4 °F 26.9 °F 35.6 °F 93% 29.88 in 9.0 mi East 20.7 mph - 0.02 in Rain Light Rain
2:53 PM 37.9 °F 28.2 °F 36.0 °F 93% 29.88 in 10.0 mi East 18.4 mph - 0.02 in Rain Light Rain
3:53 PM 39.0 °F 31.4 °F 37.0 °F 93% 29.86 in 10.0 mi ENE 12.7 mph - 0.00 in Rain Light Rain
4:35 PM 39.2 °F 30.5 °F 37.4 °F 93% 29.83 in 2.5 mi NE 16.1 mph - 0.00 in   Overcast
4:53 PM 39.0 °F 31.8 °F 37.9 °F 96% 29.87 in 4.0 mi NE 11.5 mph - 0.00 in   Overcast
5:03 PM 39.2 °F 33.0 °F 37.4 °F 93% 29.88 in 9.0 mi NE 9.2 mph - N/A   Overcast
5:10 PM 39.2 °F 32.0 °F 37.4 °F 93% 29.87 in 10.0 mi ENE 11.5 mph - N/A   Overcast
5:28 PM 39.2 °F 31.2 °F 37.4 °F 93% 29.86 in 5.0 mi NE 13.8 mph - N/A   Overcast
5:38 PM 39.2 °F 31.2 °F 37.4 °F 93% 29.87 in 3.0 mi NE 13.8 mph - N/A   Overcast
5:53 PM 39.0 °F 30.3 °F 37.9 °F 96% 29.88 in 3.0 mi ENE 16.1 mph - N/A   Overcast
6:53 PM 37.9 °F 28.2 °F 37.0 °F 97% 29.80 in 10.0 mi NE 18.4 mph 25.3 mph N/A   Overcast
7:53 PM 37.9 °F 28.2 °F 36.0 °F 93% 29.81 in 10.0 mi ENE 18.4 mph 23.0 mph N/A   Overcast
8:07 PM 37.4 °F 27.2 °F 35.6 °F 93% 29.78 in 10.0 mi East 19.6 mph 26.5 mph N/A   Overcast
8:53 PM 37.9 °F 27.3 °F 36.0 °F 93% 29.81 in 10.0 mi East 21.9 mph 27.6 mph 0.00 in Rain Light Rain
9:53 PM 37.0 °F 25.4 °F 35.1 °F 93% 29.75 in 10.0 mi East 25.3 mph 36.8 mph 0.00 in   Overcast
10:53 PM 37.0 °F 29.3 °F 36.0 °F 96% 29.78 in 10.0 mi East 11.5 mph - N/A   Overcast
11:53 PM 37.9 °F 31.5 °F 36.0 °F 93% 29.75 in 10.0 mi East 9.2 mph - N/A   Overcast